This demonstration page uses our WeatherBlox Daily Observations layout. Learn more.

Left ArrowRight Arrow

31.31129, -92.44514

Hourly Observations for December 8, 2015

Temp ( °F °C ) Dew Point ( °F °C ) Humidity (%) Winds ( mph kmh ) Pressure ( in mb ) Visibility ( mi km ) Precip ( " mm )
12:30 am 00:30 Clear with Mist and Fog 41 5 40 4.4 96 96 NNW 3 6 30.15 1021 2 2 0.00 0.00
12:39 am 00:39 Clear with Mist and Fog 41 5 40 4.4 96 96 NNW 5 7 30.15 1021 1 1 0.00 0.00
12:43 am 00:43 Clear with Mist and Fog 42 5.6 42 5.6 100 100 N 3 6 30.15 1021 3 4 0.00 0.00
12:50 am 00:50 Clear with Mist and Fog 43 6 43 6 100 100 Calm 30.15 1021 6 10 0.00 0.00
12:53 am 00:53 Clear with Mist and Fog 43 6.1 43 6.1 100 100 Calm 30.15 1021 6 10 0.00 0.00
1:14 am 01:14 Clear with Mist and Fog 43 6.1 42 5.6 97 97 Calm 30.12 1020 2 3 0.00 0.00
1:27 am 01:27 Clear with Mist and Fog 43 6.1 42 5.6 97 97 Calm 30.12 1020 3 5 0.00 0.00
1:53 am 01:53 Clear with Mist and Fog 43 6.1 42 5.6 97 97 Calm 30.13 1020 5 8 0.00 0.00
2:34 am 02:34 Clear with Mist and Fog 42 5.6 41 5 96 96 Calm 30.12 1020 2 3 0.00 0.00
2:37 am 02:37 Mostly Cloudy with Mist and Fog 42 5.6 42 5.6 100 100 Calm 30.12 1020 1 1 0.00 0.00
2:45 am 02:45 Mostly Clear with Mist and Fog 42 5.6 41 5 96 96 Calm 30.12 1020 1 2 0.00 0.00
2:53 am 02:53 Mostly Clear with Mist and Fog 42 5.6 41 5 96 96 Calm 30.14 1021 4 6 0.00 0.00
3:00 am 03:00 Mostly Clear with Mist and Fog 41 5 41 5 100 100 Calm 30.12 1020 2 3 0.00 0.00
3:20 am 03:20 Mostly Cloudy with Mist and Fog 41 5 41 5 100 100 Calm 30.12 1020 1 1 0.00 0.00
3:44 am 03:44 Mostly Cloudy with Fog 41 5 41 5 100 100 Calm 30.12 1020 0 0 0.00 0.00
3:49 am 03:49 Mostly Cloudy with Mist and Fog 39 4 39 4 100 100 Calm 30.12 1020 1 2 0.00 0.00
3:53 am 03:53 Partly Cloudy with Mist and Fog 40 4.4 40 4.4 100 100 Calm 30.13 1020 6 10 0.00 0.00
4:29 am 04:29 Clear with Mist and Fog 40 4.4 40 4.4 100 100 SSE 3 6 30.12 1020 2 3 0.00 0.00
4:39 am 04:39 Clear with Mist and Fog 40 4.4 40 4.4 100 100 Calm 30.12 1020 3 5 0.00 0.00
4:48 am 04:48 Clear with Mist and Fog 41 5 39 4 93 93 Calm 30.12 1020 3 4 0.00 0.00
4:53 am 04:53 Clear with Mist and Fog 41 5 41 5 100 100 Calm 30.13 1020 3 5 0.00 0.00
5:53 am 05:53 Clear with Mist and Fog 40 4.4 39 3.9 97 97 Calm 30.14 1021 5 8 0.00 0.00
6:53 am 06:53 Clear with Mist and Fog 40 4.4 39 3.9 97 97 Calm 30.14 1021 6 10 0.00 0.00
6:57 am 06:57 Partly Cloudy with Mist and Fog 40 4.4 39 3.9 97 97 Calm 30.12 1020 1 2 0.00 0.00
6:59 am 06:59 Mostly Cloudy with Mist and Fog 40 4.4 39 3.9 97 97 SE 3 6 30.12 1020 1 1 0.00 0.00
7:08 am 07:08 Sunny with Mist and Fog 38 3.3 38 3.3 100 100 SSE 5 7 30.12 1020 2 3 0.00 0.00
7:16 am 07:16 Sunny with Mist and Fog 39 3.9 38 3.3 96 96 SSE 5 7 30.12 1020 4 6 0.00 0.00
7:53 am 07:53 Sunny with Mist and Fog 43 6.1 43 6.1 100 100 Calm 30.15 1021 6 10 0.00 0.00
8:53 am 08:53 Sunny with Mist and Fog 50 10 48 8.9 93 93 SE 5 7 30.15 1021 6 10 0.00 0.00
9:53 am 09:53 Sunny 58 14.4 52 11.1 81 81 SSE 5 7 30.15 1021 7 11 0.00 0.00
10:53 am 10:53 Sunny 63 17.2 50 10 63 63 S 8 13 30.13 1020 10 16 0.00 0.00
11:53 am 11:53 Sunny 66 18.9 49 9.4 54 54 SSW 5 7 30.09 1019 10 16 0.00 0.00
12:53 pm 12:53 Sunny 68 20 49 9.4 51 51 SSW 8 13 30.05 1018 10 16 0.00 0.00
1:53 pm 13:53 Sunny 69 20.6 48 8.9 47 47 SSW 7 11 30.02 1017 10 16 0.00 0.00
2:53 pm 14:53 Sunny 69 20.6 49 9.4 49 49 S 10 17 30.00 1016 10 16 0.00 0.00
3:53 pm 15:53 Sunny 68 20 49 9.4 51 51 S 13 20 29.99 1016 10 16 0.00 0.00
4:53 pm 16:53 Sunny 64 17.8 51 10.6 63 63 S 9 15 29.99 1016 10 16 0.00 0.00
5:53 pm 17:53 Clear 59 15 51 10.6 75 75 SSE 6 9 29.99 1016 10 16 0.00 0.00
6:53 pm 18:53 Clear 56 13.3 51 10.6 84 84 SE 8 13 29.99 1016 10 16 0.00 0.00
7:53 pm 19:53 Clear 55 12.8 51 10.6 87 87 SSE 5 7 30.00 1016 10 16 0.00 0.00
8:53 pm 20:53 Clear 54 12.2 51 10.6 90 90 SSE 3 6 30.01 1016 9 14 0.00 0.00
9:53 pm 21:53 Clear 53 11.7 51 10.6 93 93 S 5 7 30.00 1016 7 11 0.00 0.00
10:53 pm 22:53 Clear 54 12.2 53 11.7 97 97 S 7 11 30.02 1017 7 11 0.00 0.00
11:53 pm 23:53 Clear with Mist and Fog 54 12.2 53 11.7 97 97 S 3 6 30.01 1016 6 10 0.00 0.00

Powered by AerisWeather